map of OPO home
OPO - Airport
Location
City:  Porto, Porto, Portugal
Name:Francisco S Carneiro
ICAO:LPPR
IATA:OPO

Details
Type:Airport (Aerodrome, Airfield)
Use:Public/Civil, International (customs port of entry)
Latitude:4114'53"N (41.248055)
Longitude:840'53"W (-8.681388)
Datum:WGS 1984
Elevation:228 ft (69 m)
Variation:2.01W (WMM2015v2 magnetic declination)
0.16 annual change
Runways:1
Longest:11417 × 148 ft (3480 × 45 m), paved

Time
Time Zone:UTC+0 (DST+1)
Local Time:

Weather
METAR:LPPR 041400Z 25005KT 200V290 CAVOK 13/04 Q1030
TAF:LPPR 041100Z 0412/0512 09005KT CAVOK
BECMG 0412/0414 VRB03KT
BECMG 0500/0503 09005KT

Related Locations
Nearby:
Farthest:NZKM: 12401 mi / 19957 km
Karamea, WTC, NZ

Find:

   beyond  
but within

Other Information
Maps:
NOTAMs:
Links:
Sources:

  
  • flag of Portugal
  • flag of Porto
  

Sectional Chart

Flight Planning
at skyvector.com

Satellite Image

Google Maps Satellite view

 

Copyright © 2004-2019 Karl L. Swartz. All rights reserved.
The Great Circle Mapper name and logo are trademarks of the Great Circle Mapper.
All other trademarks mentioned herein belong to their respective owners.
Please see credits for attibutions and further copyright information.

  Follow gcmap on Facebook Follow gcmap on Twitter GCmap on LinkedIn

hCard Microformat

Geo Microformat